This demonstration page uses our WeatherBlox Daily Observations layout. Learn more.

Left ArrowRight Arrow

39.51506, -84.39828

Hourly Observations for June 20, 2021

Temp ( °F °C ) Dew Point ( °F °C ) Humidity (%) Winds ( mph kmh ) Pressure ( in mb ) Visibility ( mi km ) Precip ( " mm )
12:15 am 00:15 Partly Cloudy with Mist and Fog 72 22 N/A N/A N N/A 29.82 1010 4 6 N/A
12:35 am 00:35 Clear with Mist and Fog 70 21 N/A N/A N N/A 29.81 1010 2 3 N/A
12:55 am 00:55 Clear with Mist and Fog 70 21 N/A N/A SW 7 11 29.80 1009 2 3 N/A
1:15 am 01:15 Mostly Cloudy with Haze 70 21 N/A N/A WSW 3 6 29.80 1009 7 11 N/A
1:35 am 01:35 Hazy 72 22 N/A N/A SW 5 7 29.79 1009 7 11 N/A
1:55 am 01:55 Hazy 70 21 N/A N/A N N/A 29.78 1009 5 8 N/A
2:15 am 02:15 Hazy 70 21 N/A N/A N N/A 29.78 1009 5 8 N/A
2:35 am 02:35 Partly Cloudy with Mist and Fog 70 21 N/A N/A WSW 3 6 29.79 1009 3 5 N/A
2:55 am 02:55 Cloudy with Haze 70 21 N/A N/A N N/A 29.79 1009 5 8 N/A
3:15 am 03:15 Cloudy with Haze 72 22 N/A N/A SW 5 7 29.80 1009 7 11 N/A
3:35 am 03:35 Mostly Cloudy 73 22.5 72 22.3 99 99 SW 6 9 29.79 1009 10 16 N/A
3:55 am 03:55 Mostly Cloudy 72 22.3 72 22.2 99 99 SW 6 9 29.80 1009 10 16 N/A
4:15 am 04:15 Cloudy 73 22.5 72 22.4 99 99 SSW 6 9 29.80 1009 10 16 N/A
4:35 am 04:35 Partly Cloudy 73 22.9 72 22.2 96 96 SW 6 9 29.80 1009 10 16 N/A
4:55 am 04:55 Mostly Cloudy 73 23 72 22.3 96 96 SSW 7 11 29.80 1009 10 16 N/A
5:15 am 05:15 Partly Cloudy 72 22.3 72 22.1 99 99 SW 5 7 29.80 1009 10 16 N/A
5:35 am 05:35 Clear 72 22 71 21.9 99 99 N N/A 29.80 1009 10 16 N/A
5:55 am 05:55 Partly Cloudy 72 22 72 22 100 100 S 5 7 29.81 1009 10 16 N/A
6:15 am 06:15 Mostly Cloudy 72 22 72 22 100 100 SSW 5 7 29.81 1009 10 16 N/A
6:35 am 06:35 Cloudy 72 22 N/A N/A S 6 9 29.81 1009 10 16 N/A
6:55 am 06:55 Sunny 73 22.5 72 22.2 98 98 S 6 9 29.82 1010 10 16 N/A
7:15 am 07:15 Sunny 73 22.8 72 22.3 97 97 SSW 8 13 29.81 1009 10 16 N/A
7:35 am 07:35 Sunny 74 23.2 72 22.3 95 95 SSW 9 15 29.80 1009 10 16 N/A
7:55 am 07:55 Sunny 75 23.7 72 22.4 92 92 SSW 13 20 29.80 1009 10 16 N/A
8:15 am 08:15 Partly Cloudy 75 24.1 73 22.5 91 91 SSW 8 13 29.80 1009 10 16 N/A
8:35 am 08:35 Partly Cloudy 76 24.5 72 22.4 88 88 SSW 12 19 29.79 1009 10 16 N/A
8:55 am 08:55 Sunny 77 24.9 73 22.6 87 87 SSW 10 17 29.81 1010 10 16 N/A
9:15 am 09:15 Partly Cloudy 78 25.3 73 22.5 85 85 SW 14 22 29.81 1010 10 16 N/A
9:35 am 09:35 Sunny 78 25.4 72 22.2 83 83 SW 13 20 29.82 1010 10 16 N/A
9:55 am 09:55 Sunny 79 25.9 73 22.6 82 82 SW 13 20 29.82 1010 10 16 N/A
10:15 am 10:15 Partly Cloudy 79 26.2 73 22.7 81 81 SSW 9 15 29.80 1009 10 16 N/A
10:35 am 10:35 Sunny 80 26.6 73 22.6 79 79 SW 10 17 29.80 1009 10 16 N/A
10:55 am 10:55 Partly Cloudy 80 26.9 73 22.7 78 78 SSW 9 15 29.79 1009 10 16 N/A
11:15 am 11:15 Partly Cloudy 81 27.3 74 23.1 78 78 SW 10 17 29.79 1009 10 16 N/A
11:35 am 11:35 Partly Cloudy 82 27.6 74 23.2 77 77 SW 10 17 29.79 1009 10 16 N/A
11:55 am 11:55 Mostly Cloudy 83 28.1 73 23 74 74 SW 14 22 29.79 1009 10 16 N/A
12:15 pm 12:15 Partly Cloudy 83 28.2 74 23.1 74 74 SSW 12 19 29.78 1008 10 16 N/A
12:35 pm 12:35 Mostly Cloudy 83 28.5 73 23 72 72 SW 12 19 29.77 1008 10 16 N/A
12:55 pm 12:55 Partly Cloudy 84 28.7 74 23.3 73 73 SW 10 17 29.77 1008 10 16 N/A
1:15 pm 13:15 Cloudy 84 28.8 74 23.1 71 71 SSW 8 13 29.76 1008 10 16 N/A
1:35 pm 13:35 Mostly Cloudy 84 29 74 23.1 71 71 WSW 10 17 29.75 1008 7 11 N/A
1:55 pm 13:55 Mostly Cloudy 84 29 73 22.9 70 70 SW 9 15 29.75 1008 10 16 N/A
2:15 pm 14:15 Mostly Cloudy 84 29.1 74 23.2 71 71 W 8 13 29.74 1007 10 16 N/A
2:35 pm 14:35 Mostly Cloudy 85 29.4 74 23.4 70 70 SW 10 17 29.74 1007 10 16 N/A
2:55 pm 14:55 Partly Cloudy 86 30 73 23 66 66 SW 12 19 29.73 1007 10 16 N/A
3:15 pm 15:15 Mostly Cloudy 85 29.5 74 23.4 70 70 SW 8 13 29.73 1007 10 16 N/A
3:35 pm 15:35 Partly Cloudy 85 29.7 73 22.6 66 66 WSW 12 19 29.72 1007 10 16 N/A
3:55 pm 15:55 Partly Cloudy 87 30.4 72 22.4 62 62 SW 8 13 29.72 1006 10 16 N/A
4:15 pm 16:15 Partly Cloudy 87 30.7 73 22.9 63 63 SW 12 19 29.71 1006 10 16 N/A
4:35 pm 16:35 Sunny 87 30.5 72 22.4 62 62 WSW 13 20 29.71 1006 10 16 N/A
4:55 pm 16:55 Sunny 87 30.5 72 22.4 62 62 WSW 14 22 29.70 1006 10 16 N/A
5:15 pm 17:15 Sunny 86 29.9 72 22.1 63 63 SW 13 20 29.71 1006 10 16 N/A
5:35 pm 17:35 Sunny 87 30.6 71 21.8 59 59 SW 13 20 29.71 1006 10 16 N/A
5:55 pm 17:55 Sunny 87 30.3 73 22.5 63 63 SW 14 22 29.70 1006 10 16 N/A
6:15 pm 18:15 Sunny 87 30.3 72 22.1 62 62 SW 13 20 29.70 1006 10 16 N/A
6:35 pm 18:35 Sunny 86 30 73 22.5 64 64 SW 12 19 29.69 1005 10 16 N/A
6:55 pm 18:55 Partly Cloudy 86 29.8 72 22.2 64 64 SW 12 19 29.70 1006 10 16 N/A
7:15 pm 19:15 Sunny 84 29.1 73 22.9 69 69 SW 8 13 29.69 1006 10 16 N/A
7:35 pm 19:35 Partly Cloudy 84 29 73 22.5 68 68 SW 12 19 29.68 1005 10 16 N/A
7:55 pm 19:55 Sunny 84 29.1 73 23 70 70 SSW 8 13 29.68 1005 10 16 N/A
8:15 pm 20:15 Sunny 84 28.8 73 23 71 71 SSW 9 15 29.67 1005 10 16 N/A
8:35 pm 20:35 Partly Cloudy 83 28.3 73 22.9 73 73 SSW 12 19 29.68 1005 10 16 N/A
8:55 pm 20:55 Sunny 82 27.9 73 23 75 75 SSW 8 13 29.68 1005 10 16 N/A
9:15 pm 21:15 Partly Cloudy 81 27 74 23.4 81 81 SW 6 9 29.68 1005 10 16 N/A
9:35 pm 21:35 Partly Cloudy 81 27.3 73 23 77 77 SSW 10 17 29.68 1005 10 16 N/A
9:55 pm 21:55 Clear 82 27.5 73 22.6 75 75 SSW 8 13 29.68 1005 10 16 N/A
10:15 pm 22:15 Clear 80 26.7 73 22.7 79 79 SW 7 11 29.69 1005 10 16 N/A
10:35 pm 22:35 Clear 80 26.8 73 22.5 77 77 SSW 8 13 29.70 1006 10 16 N/A
10:55 pm 22:55 Clear 80 26.5 73 22.5 79 79 SSW 8 13 29.70 1006 10 16 N/A
11:15 pm 23:15 Clear 80 26.5 72 22.4 78 78 SSW 9 15 29.69 1005 10 16 N/A
11:35 pm 23:35 Clear 78 25.5 73 22.5 84 84 SSW 9 15 29.69 1005 10 16 N/A
11:55 pm 23:55 Clear 79 26 72 22.2 80 80 SSW 9 15 29.68 1005 10 16 N/A

Powered by AerisWeather